Regional Weather Roundup
Issued by NWS

Home | Current Version | Previous Version | Text Only | Print | Product List | Glossary Off
Versions: 1 2 3 4 5 6 7 8 9 10 11 12 13 14 15 16 17 18 19 20 21 22 23 24 25 26 27 28 29 30 31 32 33 34 35 36 37 38 39 40 41 42 43 44 45 46 47 48 49 50

000
ASUS43 KLSX 030059
RWRMO

WEATHER SUMMARY FOR MISSOURI
NATIONAL WEATHER SERVICE SPRINGFIELD MO
800 PM CDT TUE SEP 02 2014

NOTE: "FAIR" INDICATES FEW OR NO CLOUDS BELOW 12,000 FEET WITH NO
       SIGNIFICANT WEATHER AND/OR OBSTRUCTIONS TO VISIBILITY.
       CURRENT SKY AND/OR WEATHER CONDITIONS ARE NOT AVAILABLE FOR
       CHILLICOTHE AND FARMINGTON.

MOZ001>031-035>038-043-044-053-054-030200-
...NORTHERN AND WESTERN MISSOURI...

CITY           SKY/WX    TMP DP  RH WIND       PRES   REMARKS
KANSAS CTY INT PTCLDY    75  68  78 SW5       29.95R
KANSAS C DTWN  CLEAR     80  67  64 NW3       29.94R
LEE`S SUMMIT   CLEAR     76  69  79 CALM      29.96R
ST JOSEPH      CLEAR     76  66  71 NE6       29.93S
KIRKSVILLE     CLEAR     70  66  87 CALM      29.97R

$$
MOZ066>068-077>081-088>096-101>105-030200-
...SOUTHWEST MISSOURI...

CITY           SKY/WX    TMP DP  RH WIND       PRES   REMARKS
SPRINGFIELD    CLEAR     73  66  78 S3        29.98R
JOPLIN         PTCLDY    74  68  81 S5        29.97R

$$
MOZ032>034-039>042-045>050-055>058-069>072-030200-
...CENTRAL MISSOURI...

CITY           SKY/WX    TMP DP  RH WIND       PRES   REMARKS
COLUMBIA       CLEAR     74  69  85 SW3       29.97R
JEFFERSON CITY CLEAR     74  70  87 SE3       29.96R
ROLLA          FOG       71  68  90 S3        29.98R VSB 1/4
SEDALIA        CLEAR     73  69  87 S5        29.96S
OSAGE BEACH    CLEAR     73  68  83 CALM      29.98R

$$
MOZ051-052-059>065-030200-
...EAST CENTRAL MISSOURI...

CITY           SKY/WX    TMP DP  RH WIND       PRES   REMARKS
ST LOUIS INTL  MOCLDY    78  67  68 CALM      29.97R
SPIRIT OF STL  PTCLDY    73  69  87 CALM      29.95R
ST CHARLES     CLEAR     74  69  85 CALM      29.95R

$$
MOZ072>076-082>087-097>100-106>115-030200-
...SOUTH CENTRAL AND SOUTHEAST MISSOURI...

CITY           SKY/WX    TMP DP  RH WIND       PRES   REMARKS
CAPE GIRARDEAU CLOUDY    77  72  84 CALM      29.97R
FARMINGTON     PTCLDY    72  66  83 CALM      30.02R
POPLAR BLUFF   CLEAR     73  68  84 CALM      29.96R
WEST PLAINS    PTCLDY    70  65  84 CALM      30.01S

$$



USA.gov is the U.S. government's official web portal to all federal, state and local government web resources and services.